Idaho Falls, ID

5:08 AM MST on November 25, 2017 (GMT -0700)
Fanning

Weather History for KIDA - June, 2013

Change the Weather History Date:

Tuesday, June 11, 2013

  Actual Average Record
Temperature  
Mean Temperature 70 °F 60 °F  
Max Temperature 83 °F 75 °F 90 °F (1974)
Min Temperature 56 °F 45 °F 33 °F (2008)
Degree Days  
Heating Degree Days 0 6  
Month to date heating degree days 41 78  
Since 1 June heating degree days 41 78  
Since 1 July heating degree days 7456 7769  
Cooling Degree Days 5 1  
Month to date cooling degree days 21 2  
Year to date cooling degree days 25 4  
Since 1 June cooling degree days 21 2  
Growing Degree Days 22 (Base 50)    
Moisture  
Dew Point 41 °F    
Average Humidity 43    
Maximum Humidity 60    
Minimum Humidity 25    
Precipitation  
Precipitation 0.00 in 0.04 in 0.44 in (1960)
Month to date precipitation 0.00 0.55  
Year to date precipitation 1.78 5.40  
Sea Level Pressure  
Sea Level Pressure 29.74 in    
Wind  
Wind Speed 15 mph (SSW)    
Max Wind Speed 28 mph    
Max Gust Speed 38 mph    
Visibility 10 miles    
Events      
T = Trace of Precipitation, MM = Missing Value Source: NWS Daily Summary

Daily Weather History Graph

Daily Weather History Graph

Search for Another Location

Airport or City:

Trip Planner

Search our weather history database for the weather conditions in past years. The results will help you decide how hot, cold, wet, or windy it might be!

Date:

Astronomy

Jun. 11, 2013 Rise Set
Actual Time 5:46 AM MDT 9:09 PM MDT
Civil Twilight 5:11 AM MDT 9:45 PM MDT
Nautical Twilight 4:24 AM MDT 10:31 PM MDT
Astronomical Twilight 3:26 AM MDT 11:29 PM MDT
Moon 8:37 AM MDT (6/11) 11:09 PM MDT (6/11)
Length of Visible Light 16h 33m
Length of Day
15h 22m
Waxing Crescent, 8% of the Moon is Illuminated
Jun 11
Waxing Crescent
Jun 16
First Quarter
Jun 23
Full
Jun 29
Last Quarter
Jul 8
New

Hourly Weather History & Observations

Time (MDT) Temp. Dew Point Humidity Pressure Visibility Wind Dir Wind Speed Gust Speed Precip Events Conditions
12:53 AM 64.9 °F 33.1 °F 31% 29.58 in 10.0 mi SW 6.9 mph - N/A   Clear
1:53 AM 71.1 °F 34.0 °F 26% 29.58 in 10.0 mi SSW 17.3 mph - N/A   Clear
2:53 AM 66.9 °F 37.9 °F 34% 29.61 in 10.0 mi SSW 18.4 mph - N/A   Clear
3:53 AM 62.1 °F 37.0 °F 39% 29.64 in 10.0 mi SSW 11.5 mph - N/A   Clear
4:53 AM 64.0 °F 35.1 °F 34% 29.63 in 10.0 mi SSW 12.7 mph - N/A   Clear
5:53 AM 63.0 °F 36.0 °F 37% 29.65 in 10.0 mi South 13.8 mph - N/A   Clear
6:53 AM 63.0 °F 39.0 °F 41% 29.67 in 10.0 mi SSW 13.8 mph - N/A   Scattered Clouds
7:53 AM 64.0 °F 42.1 °F 45% 29.70 in 10.0 mi SSW 12.7 mph - N/A   Scattered Clouds
8:53 AM 66.9 °F 44.1 °F 44% 29.73 in 10.0 mi SW 17.3 mph 23.0 mph N/A   Scattered Clouds
9:53 AM 64.9 °F 43.0 °F 45% 29.77 in 10.0 mi SSW 17.3 mph 25.3 mph N/A   Mostly Cloudy
10:53 AM 68.0 °F 43.0 °F 40% 29.79 in 10.0 mi WSW 10.4 mph - N/A   Clear
11:53 AM 73.0 °F 44.1 °F 35% 29.78 in 10.0 mi SW 12.7 mph - N/A   Clear
12:53 PM 77.0 °F 45.0 °F 32% 29.80 in 10.0 mi SSW 18.4 mph 25.3 mph N/A   Scattered Clouds
1:53 PM 81.0 °F 42.1 °F 25% 29.78 in 10.0 mi South 19.6 mph 27.6 mph N/A   Scattered Clouds
2:53 PM 81.0 °F 42.1 °F 25% 29.78 in 10.0 mi SSW 24.2 mph 32.2 mph N/A   Scattered Clouds
3:53 PM 80.1 °F 43.0 °F 27% 29.80 in 10.0 mi SSW 21.9 mph 29.9 mph N/A   Scattered Clouds
4:53 PM 82.0 °F 44.1 °F 26% 29.78 in 10.0 mi SSW 20.7 mph 31.1 mph N/A   Clear
5:53 PM 81.0 °F 42.1 °F 25% 29.78 in 10.0 mi SSW 23.0 mph 33.4 mph N/A   Clear
6:53 PM 80.1 °F 44.1 °F 28% 29.78 in 10.0 mi SSW 20.7 mph 28.8 mph N/A   Clear
7:53 PM 77.0 °F 44.1 °F 31% 29.81 in 10.0 mi SSW 17.3 mph 23.0 mph N/A   Clear
8:53 PM 75.0 °F 44.1 °F 33% 29.82 in 10.0 mi South 13.8 mph - N/A   Partly Cloudy
9:53 PM 72.0 °F 43.0 °F 35% 29.85 in 10.0 mi South 9.2 mph - N/A   Clear
10:53 PM 70.0 °F 43.0 °F 38% 29.86 in 10.0 mi South 5.8 mph - N/A   Partly Cloudy
11:53 PM 61.0 °F 46.0 °F 58% 29.88 in 10.0 mi WSW 4.6 mph - N/A   Clear